Time,TemperatureF,DewpointF,PressureIn,WindDirection,WindDirectionDegrees,WindSpeedMPH,WindSpeedGustMPH,Humidity,HourlyPrecipIn,Conditions,Clouds,dailyrainin,SolarRadiationWatts/m^2,SoftwareType,DateUTC
2013-08-28 00:00:00,73.8,71.0,29.98,NNE,21,0.0,0.0,91,0.00,BKN,,0.00,0.0,WeatherDisplay:10.37,2013-08-28 04:00:00,
2013-08-28 00:01:00,73.8,71.0,29.98,NNE,21,0.0,0.0,91,0.00,BKN,,0.00,0.0,WeatherDisplay:10.37,2013-08-28 04:01:00,
2013-08-28 00:06:00,73.7,70.9,29.98,NNE,21,0.0,0.0,91,0.00,BKN,,0.00,0.0,WeatherDisplay:10.37,2013-08-28 04:06:00,
2013-08-28 00:11:00,73.8,71.0,29.98,NNE,21,0.0,0.0,91,0.00,BKN,,0.00,0.0,WeatherDisplay:10.37,2013-08-28 04:11:00,
2013-08-28 00:15:00,73.7,71.2,29.98,NNE,21,0.0,0.0,92,0.00,BKN,,0.00,0.0,WeatherDisplay:10.37,2013-08-28 04:15:00,
2013-08-28 00:20:00,73.7,71.2,29.98,NNE,21,0.0,0.0,92,0.00,BKN,,0.00,0.0,WeatherDisplay:10.37,2013-08-28 04:20:00,
2013-08-28 00:25:00,73.5,71.0,29.98,NNE,21,0.0,0.0,92,0.00,BKN,,0.00,0.0,WeatherDisplay:10.37,2013-08-28 04:25:00,
2013-08-28 00:30:00,73.4,70.9,29.98,NNE,21,0.0,0.0,92,0.00,BKN,,0.00,0.0,WeatherDisplay:10.37,2013-08-28 04:30:00,
2013-08-28 00:35:00,73.3,70.8,29.98,NNE,21,0.0,0.0,92,0.00,BKN,,0.00,0.0,WeatherDisplay:10.37,2013-08-28 04:35:00,
2013-08-28 00:40:00,73.3,70.8,29.98,NNE,21,0.0,0.0,92,0.00,BKN,,0.00,0.0,WeatherDisplay:10.37,2013-08-28 04:40:00,
2013-08-28 00:44:00,73.2,70.7,29.98,NNE,21,0.0,0.0,92,0.00,BKN,,0.00,0.0,WeatherDisplay:10.37,2013-08-28 04:44:00,
2013-08-28 00:45:00,73.2,70.7,29.98,NNE,21,0.0,0.0,92,0.00,BKN,,0.00,0.0,WeatherDisplay:10.37,2013-08-28 04:45:00,
2013-08-28 00:50:00,73.2,70.7,29.98,NNE,21,0.0,0.0,92,0.00,BKN,,0.00,0.0,WeatherDisplay:10.37,2013-08-28 04:50:00,
2013-08-28 00:57:00,73.2,70.7,29.98,NNE,21,0.0,0.0,92,0.00,BKN,,0.00,0.0,WeatherDisplay:10.37,2013-08-28 04:57:00,
2013-08-28 01:12:00,73.2,70.7,29.98,NNE,21,0.0,0.0,92,0.00,BKN,,0.00,0.0,WeatherDisplay:10.37,2013-08-28 05:12:00,
2013-08-28 01:28:00,73.2,70.7,29.98,NNE,21,0.0,0.0,92,0.00,BKN,,0.00,0.0,WeatherDisplay:10.37,2013-08-28 05:28:00,
2013-08-28 01:36:00,73.2,70.7,29.98,NNE,21,0.0,0.0,92,0.00,BKN,,0.00,0.0,WeatherDisplay:10.37,2013-08-28 05:36:00,
2013-08-28 01:41:00,73.2,70.7,29.98,NNE,21,0.0,0.0,92,0.00,BKN,,0.00,0.0,WeatherDisplay:10.37,2013-08-28 05:41:00,
2013-08-28 01:46:00,73.2,70.7,29.98,NNE,21,0.0,0.0,92,0.00,BKN,,0.00,0.0,WeatherDisplay:10.37,2013-08-28 05:46:00,
2013-08-28 01:51:00,73.2,70.7,29.98,NNE,21,0.0,0.0,92,0.00,BKN,,0.00,0.0,WeatherDisplay:10.37,2013-08-28 05:51:00,
2013-08-28 02:03:00,73.2,70.7,29.98,NNE,21,0.0,0.0,92,0.00,BKN,,0.00,0.0,WeatherDisplay:10.37,2013-08-28 06:03:00,
2013-08-28 02:13:00,73.2,70.7,29.98,NNE,21,0.0,0.0,92,0.00,BKN,,0.00,0.0,WeatherDisplay:10.37,2013-08-28 06:13:00,
2013-08-28 02:18:00,73.2,70.7,29.98,NNE,21,0.0,0.0,92,0.00,BKN,,0.00,0.0,WeatherDisplay:10.37,2013-08-28 06:18:00,
2013-08-28 02:46:00,73.2,70.7,29.98,NNE,21,0.0,0.0,92,0.00,BKN,,0.00,0.0,WeatherDisplay:10.37,2013-08-28 06:46:00,
2013-08-28 02:56:00,73.2,70.7,29.98,NNE,21,0.0,0.0,92,0.00,BKN,,0.00,0.0,WeatherDisplay:10.37,2013-08-28 06:56:00,
2013-08-28 03:10:00,73.2,70.7,29.98,NNE,21,0.0,0.0,92,0.00,BKN,,0.00,0.0,WeatherDisplay:10.37,2013-08-28 07:10:00,
2013-08-28 03:15:00,73.2,70.7,29.98,NNE,21,0.0,0.0,92,0.00,BKN,,0.00,0.0,WeatherDisplay:10.37,2013-08-28 07:15:00,
2013-08-28 03:57:00,73.2,70.7,29.98,NNE,21,0.0,0.0,92,0.00,BKN,,0.00,0.0,WeatherDisplay:10.37,2013-08-28 07:57:00,
2013-08-28 04:14:00,73.2,70.7,29.98,NNE,21,0.0,0.0,92,0.00,BKN,,0.00,0.0,WeatherDisplay:10.37,2013-08-28 08:14:00,
2013-08-28 04:32:00,73.2,70.7,29.98,NNE,21,0.0,0.0,92,0.00,BKN,,0.00,0.0,WeatherDisplay:10.37,2013-08-28 08:32:00,
2013-08-28 04:37:00,71.0,69.2,29.93,NNE,21,0.0,0.0,94,0.00,BKN,,0.00,0.0,WeatherDisplay:10.37,2013-08-28 08:37:00,
2013-08-28 04:42:00,70.9,69.1,29.93,NNE,21,0.0,0.0,94,0.00,BKN,,0.00,0.0,WeatherDisplay:10.37,2013-08-28 08:42:00,
2013-08-28 04:47:00,70.9,69.1,29.94,NNE,21,0.0,0.0,94,0.00,BKN,,0.00,0.0,WeatherDisplay:10.37,2013-08-28 08:47:00,
2013-08-28 04:52:00,71.0,69.2,29.94,NNE,21,0.0,0.0,94,0.00,BKN,,0.00,0.0,WeatherDisplay:10.37,2013-08-28 08:52:00,
2013-08-28 04:57:00,71.0,69.2,29.94,NNE,21,0.0,0.0,94,0.00,BKN,,0.00,0.0,WeatherDisplay:10.37,2013-08-28 08:57:00,
2013-08-28 05:02:00,70.8,69.0,29.94,NNE,21,0.0,0.0,94,0.00,BKN,,0.00,0.0,WeatherDisplay:10.37,2013-08-28 09:02:00,
2013-08-28 05:07:00,70.6,68.8,29.94,NNE,21,0.0,0.0,94,0.00,BKN,,0.00,0.0,WeatherDisplay:10.37,2013-08-28 09:07:00,
2013-08-28 05:12:00,70.7,68.9,29.94,NNE,21,0.0,0.0,94,0.00,BKN,,0.00,0.0,WeatherDisplay:10.37,2013-08-28 09:12:00,
2013-08-28 05:17:00,70.7,68.9,29.94,NNE,21,0.0,0.0,94,0.00,BKN,,0.00,0.0,WeatherDisplay:10.37,2013-08-28 09:17:00,
2013-08-28 05:22:00,70.5,68.7,29.94,NNE,21,0.0,0.0,94,0.00,BKN,,0.00,0.0,WeatherDisplay:10.37,2013-08-28 09:22:00,
2013-08-28 05:27:00,70.4,68.6,29.94,NNE,21,0.0,0.0,94,0.00,BKN,,0.00,0.0,WeatherDisplay:10.37,2013-08-28 09:27:00,
2013-08-28 05:32:00,70.2,68.4,29.94,NNE,21,0.0,0.0,94,0.00,BKN,,0.00,0.0,WeatherDisplay:10.37,2013-08-28 09:32:00,
2013-08-28 05:34:00,70.2,68.4,29.94,NNE,21,0.0,0.0,94,0.00,BKN,,0.00,0.0,WeatherDisplay:10.37,2013-08-28 09:34:00,
2013-08-28 05:39:00,70.2,68.7,29.94,NNE,21,0.0,0.0,95,0.00,BKN,,0.00,0.0,WeatherDisplay:10.37,2013-08-28 09:39:00,
2013-08-28 05:44:00,70.2,68.7,29.94,NNE,21,0.0,0.0,95,0.00,BKN,,0.00,0.0,WeatherDisplay:10.37,2013-08-28 09:44:00,
2013-08-28 05:49:00,70.1,68.6,29.94,NNE,21,0.0,0.0,95,0.00,BKN,,0.00,0.0,WeatherDisplay:10.37,2013-08-28 09:49:00,
2013-08-28 05:55:00,70.0,68.2,29.94,NNE,21,0.0,0.0,94,0.00,CLR,,0.00,0.0,WeatherDisplay:10.37,2013-08-28 09:55:00,
2013-08-28 06:00:00,70.2,68.7,29.94,NNE,22,0.0,0.0,95,0.00,CLR,,0.00,0.0,WeatherDisplay:10.37,2013-08-28 10:00:00,
2013-08-28 06:05:00,70.1,68.6,29.94,NNE,22,0.0,0.0,95,0.00,CLR,,0.00,0.0,WeatherDisplay:10.37,2013-08-28 10:05:00,
2013-08-28 06:10:00,70.1,68.6,29.94,NNE,22,0.0,0.0,95,0.00,CLR,,0.00,0.0,WeatherDisplay:10.37,2013-08-28 10:10:00,
2013-08-28 06:15:00,70.1,68.6,29.94,NNE,22,0.0,0.0,95,0.00,CLR,,0.00,0.0,WeatherDisplay:10.37,2013-08-28 10:15:00,
2013-08-28 06:20:00,70.1,68.6,29.94,NNE,22,0.0,0.0,95,0.00,CLR,,0.00,0.0,WeatherDisplay:10.37,2013-08-28 10:20:00,
2013-08-28 06:25:00,70.1,68.6,29.94,NNE,22,0.0,0.0,95,0.00,CLR,,0.00,0.0,WeatherDisplay:10.37,2013-08-28 10:25:00,
2013-08-28 06:30:00,70.1,68.6,29.94,NNE,22,0.0,0.0,95,0.00,CLR,,0.00,0.0,WeatherDisplay:10.37,2013-08-28 10:30:00,
2013-08-28 06:35:00,70.1,68.6,29.94,NNE,22,0.0,0.0,95,0.00,CLR,,0.00,0.0,WeatherDisplay:10.37,2013-08-28 10:35:00,
2013-08-28 06:40:00,70.3,68.8,29.94,NNE,22,0.0,0.0,95,0.00,CLR,,0.00,0.0,WeatherDisplay:10.37,2013-08-28 10:40:00,
2013-08-28 06:45:00,70.1,68.6,29.94,NNE,22,0.0,0.0,95,0.00,CLR,,0.00,0.0,WeatherDisplay:10.37,2013-08-28 10:45:00,
2013-08-28 06:50:00,69.9,68.4,29.94,NNE,22,0.0,0.0,95,0.00,CLR,,0.00,0.0,WeatherDisplay:10.37,2013-08-28 10:50:00,
2013-08-28 06:55:00,69.9,68.4,29.94,NNE,22,0.0,0.0,95,0.00,CLR,,0.00,0.0,WeatherDisplay:10.37,2013-08-28 10:55:00,
2013-08-28 07:00:00,69.9,68.4,29.94,NNE,22,0.0,0.0,95,0.00,CLR,,0.00,0.0,WeatherDisplay:10.37,2013-08-28 11:00:00,
2013-08-28 07:05:00,69.7,68.2,29.94,NNE,22,0.0,0.0,95,0.00,CLR,,0.00,0.0,WeatherDisplay:10.37,2013-08-28 11:05:00,
2013-08-28 07:10:00,69.7,68.2,29.94,NNE,22,0.0,0.0,95,0.00,CLR,,0.00,7.0,WeatherDisplay:10.37,2013-08-28 11:10:00,
2013-08-28 07:15:00,69.7,68.2,29.95,NNE,22,0.0,0.0,95,0.00,CLR,,0.00,9.0,WeatherDisplay:10.37,2013-08-28 11:15:00,
2013-08-28 07:20:00,69.8,68.3,29.95,NNE,22,0.0,0.0,95,0.00,CLR,,0.00,12.0,WeatherDisplay:10.37,2013-08-28 11:20:00,
2013-08-28 07:25:00,69.7,68.2,29.95,NNE,22,0.0,0.0,95,0.00,CLR,,0.00,16.0,WeatherDisplay:10.37,2013-08-28 11:25:00,
2013-08-28 07:30:00,69.8,68.3,29.95,NNE,22,0.0,0.0,95,0.00,CLR,,0.00,21.0,WeatherDisplay:10.37,2013-08-28 11:30:00,
2013-08-28 07:35:00,69.8,68.3,29.95,NNE,22,0.0,0.0,95,0.00,CLR,,0.00,26.0,WeatherDisplay:10.37,2013-08-28 11:35:00,
2013-08-28 07:40:00,69.9,68.4,29.95,NNE,22,0.0,0.0,95,0.00,CLR,,0.00,35.0,WeatherDisplay:10.37,2013-08-28 11:40:00,
2013-08-28 07:45:00,70.1,68.6,29.96,NNE,22,0.0,0.0,95,0.00,CLR,,0.00,44.0,WeatherDisplay:10.37,2013-08-28 11:45:00,
2013-08-28 07:50:00,70.4,69.2,29.96,NNE,22,0.0,0.0,96,0.00,CLR,,0.00,56.0,WeatherDisplay:10.37,2013-08-28 11:50:00,
2013-08-28 07:55:00,70.7,69.5,29.96,NNE,22,0.0,0.0,96,0.00,CLR,,0.00,77.0,WeatherDisplay:10.37,2013-08-28 11:55:00,
2013-08-28 08:00:00,71.2,70.0,29.96,NNE,22,0.0,0.0,96,0.00,CLR,,0.00,90.0,WeatherDisplay:10.37,2013-08-28 12:00:00,
2013-08-28 08:05:00,71.3,70.1,29.96,NNE,22,0.0,0.0,96,0.00,CLR,,0.00,102.0,WeatherDisplay:10.37,2013-08-28 12:05:00,
2013-08-28 08:10:00,71.9,70.7,29.96,NNE,22,0.0,0.0,96,0.00,CLR,,0.00,123.0,WeatherDisplay:10.37,2013-08-28 12:10:00,
2013-08-28 08:15:00,72.3,71.1,29.97,NNE,22,0.0,0.0,96,0.00,CLR,,0.00,149.0,WeatherDisplay:10.37,2013-08-28 12:15:00,
2013-08-28 08:20:00,72.8,71.6,29.97,NNE,22,0.0,0.0,96,0.00,CLR,,0.00,171.0,WeatherDisplay:10.37,2013-08-28 12:20:00,
2013-08-28 08:25:00,73.0,71.8,29.97,NNE,22,0.0,0.0,96,0.00,CLR,,0.00,179.0,WeatherDisplay:10.37,2013-08-28 12:25:00,
2013-08-28 08:30:00,73.5,72.3,29.97,NNE,22,0.0,0.0,96,0.00,CLR,,0.00,213.0,WeatherDisplay:10.37,2013-08-28 12:30:00,
2013-08-28 08:35:00,74.2,73.0,29.97,NNE,22,0.0,0.0,96,0.00,CLR,,0.00,279.0,WeatherDisplay:10.37,2013-08-28 12:35:00,
2013-08-28 08:40:00,74.9,73.7,29.97,NNE,22,0.0,0.0,96,0.00,CLR,,0.00,251.0,WeatherDisplay:10.37,2013-08-28 12:40:00,
2013-08-28 08:45:00,75.7,74.2,29.97,NNE,22,0.0,0.0,95,0.00,CLR,,0.00,306.0,WeatherDisplay:10.37,2013-08-28 12:45:00,
2013-08-28 08:50:00,76.3,74.4,29.97,NNE,22,0.0,0.0,94,0.00,CLR,,0.00,311.0,WeatherDisplay:10.37,2013-08-28 12:50:00,
2013-08-28 08:55:00,76.9,74.7,29.97,NNE,22,0.0,1.0,93,0.00,CLR,,0.00,362.0,WeatherDisplay:10.37,2013-08-28 12:55:00,
2013-08-28 09:00:00,78.0,75.2,29.98,NNE,22,0.0,0.0,91,0.00,OVC,,0.00,339.0,WeatherDisplay:10.37,2013-08-28 13:00:00,
2013-08-28 09:05:00,78.6,74.7,29.98,NNE,22,0.0,1.0,88,0.00,OVC,,0.00,401.0,WeatherDisplay:10.37,2013-08-28 13:05:00,
2013-08-28 09:10:00,79.4,74.1,29.98,NNE,22,0.0,4.0,84,0.00,OVC,,0.00,434.0,WeatherDisplay:10.37,2013-08-28 13:10:00,
2013-08-28 09:15:00,79.9,74.3,29.98,NNE,22,0.0,3.0,83,0.00,OVC,,0.00,425.0,WeatherDisplay:10.37,2013-08-28 13:15:00,
2013-08-28 09:20:00,80.6,73.1,29.98,NNE,22,1.0,5.0,78,0.00,OVC,,0.00,408.0,WeatherDisplay:10.37,2013-08-28 13:20:00,
2013-08-28 09:25:00,81.3,73.8,29.98,NNE,22,1.0,3.0,78,0.00,OVC,,0.00,439.0,WeatherDisplay:10.37,2013-08-28 13:25:00,
2013-08-28 09:30:00,81.6,72.5,29.98,NNE,22,1.0,5.0,74,0.00,OVC,,0.00,454.0,WeatherDisplay:10.37,2013-08-28 13:30:00,
2013-08-28 09:35:00,82.0,72.1,29.98,NNE,22,2.0,5.0,72,0.00,OVC,,0.00,503.0,WeatherDisplay:10.37,2013-08-28 13:35:00,
2013-08-28 09:45:00,82.6,72.7,29.99,NNE,22,1.0,3.0,72,0.00,OVC,,0.00,515.0,WeatherDisplay:10.37,2013-08-28 13:45:00,
2013-08-28 09:50:00,82.8,72.0,29.99,NNE,22,0.0,4.0,70,0.00,OVC,,0.00,490.0,WeatherDisplay:10.37,2013-08-28 13:50:00,
2013-08-28 09:55:00,83.2,72.0,29.99,NNE,22,0.0,5.0,69,0.00,OVC,,0.00,527.0,WeatherDisplay:10.37,2013-08-28 13:55:00,
2013-08-28 10:00:00,83.6,71.0,29.99,NNE,22,6.0,8.0,66,0.00,OVC,,0.00,592.0,WeatherDisplay:10.37,2013-08-28 14:00:00,
2013-08-28 10:05:00,84.1,71.1,29.99,NNE,22,1.0,8.0,65,0.00,OVC,,0.00,385.0,WeatherDisplay:10.37,2013-08-28 14:05:00,
2013-08-28 10:10:00,84.1,71.1,29.99,NNE,22,1.0,5.0,65,0.00,OVC,,0.00,476.0,WeatherDisplay:10.37,2013-08-28 14:10:00,
2013-08-28 10:15:00,84.2,71.2,29.99,NNE,22,5.0,8.0,65,0.00,OVC,,0.00,417.0,WeatherDisplay:10.37,2013-08-28 14:15:00,
2013-08-28 10:20:00,84.1,72.0,29.99,NNE,22,6.0,8.0,67,0.00,OVC,,0.00,360.0,WeatherDisplay:10.37,2013-08-28 14:20:00,
2013-08-28 10:25:00,84.0,71.0,29.99,NNE,22,6.0,8.0,65,0.00,OVC,,0.00,311.0,WeatherDisplay:10.37,2013-08-28 14:25:00,
2013-08-28 10:30:00,83.7,70.7,30.00,NNE,22,1.0,7.0,65,0.00,OVC,,0.00,353.0,WeatherDisplay:10.37,2013-08-28 14:30:00,
2013-08-28 10:35:00,84.2,72.5,30.00,NNE,22,0.0,4.0,68,0.00,OVC,,0.00,875.0,WeatherDisplay:10.37,2013-08-28 14:35:00,
2013-08-28 10:40:00,85.1,72.0,30.00,NNE,22,0.0,4.0,65,0.00,OVC,,0.00,874.0,WeatherDisplay:10.37,2013-08-28 14:40:00,
2013-08-28 10:45:00,85.9,72.8,30.00,NE,34,6.0,8.0,65,0.00,OVC,,0.00,784.0,WeatherDisplay:10.37,2013-08-28 14:45:00,
2013-08-28 10:50:00,87.2,74.0,30.00,NE,40,0.0,4.0,65,0.00,OVC,,0.00,759.0,WeatherDisplay:10.37,2013-08-28 14:50:00,
2013-08-28 10:55:00,87.7,73.5,30.00,NE,45,7.0,8.0,63,0.00,OVC,,0.00,816.0,WeatherDisplay:10.37,2013-08-28 14:55:00,
2013-08-28 11:00:00,87.5,72.9,30.00,NNE,32,6.0,8.0,62,0.00,OVC,,0.00,882.0,WeatherDisplay:10.37,2013-08-28 15:00:00,
2013-08-28 11:05:00,86.7,72.1,30.00,NNE,22,2.0,8.0,62,0.00,OVC,,0.00,399.0,WeatherDisplay:10.37,2013-08-28 15:05:00,
2013-08-28 11:10:00,85.9,71.8,30.00,NNE,22,0.0,5.0,63,0.00,OVC,,0.00,346.0,WeatherDisplay:10.37,2013-08-28 15:10:00,
2013-08-28 11:15:00,85.9,72.8,30.00,NNE,32,1.0,7.0,65,0.00,OVC,,0.00,881.0,WeatherDisplay:10.37,2013-08-28 15:15:00,
2013-08-28 11:20:00,86.6,72.5,30.00,NE,40,7.0,10.0,63,0.00,OVC,,0.00,816.0,WeatherDisplay:10.37,2013-08-28 15:20:00,
2013-08-28 11:25:00,86.9,72.8,30.00,NE,43,2.0,8.0,63,0.00,OVC,,0.00,853.0,WeatherDisplay:10.37,2013-08-28 15:25:00,
2013-08-28 11:30:00,88.0,73.8,30.00,NE,34,6.0,8.0,63,0.00,OVC,,0.00,860.0,WeatherDisplay:10.37,2013-08-28 15:30:00,
2013-08-28 11:35:00,88.2,74.0,30.00,NNE,22,6.0,8.0,63,0.00,OVC,,0.00,886.0,WeatherDisplay:10.37,2013-08-28 15:35:00,
2013-08-28 11:40:00,87.9,73.3,30.00,NNE,22,5.0,10.0,62,0.00,OVC,,0.00,921.0,WeatherDisplay:10.37,2013-08-28 15:40:00,
2013-08-28 11:45:00,87.7,73.5,30.00,NNE,22,2.0,10.0,63,0.00,OVC,,0.00,1079.0,WeatherDisplay:10.37,2013-08-28 15:45:00,
2013-08-28 11:50:00,88.0,72.4,30.00,NNE,22,1.0,4.0,60,0.00,OVC,,0.00,547.0,WeatherDisplay:10.37,2013-08-28 15:50:00,
2013-08-28 11:55:00,88.2,74.0,30.00,NNE,22,0.0,3.0,63,0.00,OVC,,0.00,313.0,WeatherDisplay:10.37,2013-08-28 15:55:00,
2013-08-28 12:00:00,88.1,73.4,30.00,NNE,22,0.0,1.0,62,0.00,OVC,,0.00,290.0,WeatherDisplay:10.37,2013-08-28 16:00:00,
2013-08-28 12:05:00,87.1,72.5,30.00,NNE,22,2.0,8.0,62,0.00,OVC,,0.00,278.0,WeatherDisplay:10.37,2013-08-28 16:05:00,
2013-08-28 12:10:00,86.6,72.5,30.00,NNE,22,0.0,5.0,63,0.00,OVC,,0.00,248.0,WeatherDisplay:10.37,2013-08-28 16:10:00,
2013-08-28 12:15:00,87.5,74.3,30.00,NNE,22,1.0,4.0,65,0.00,OVC,,0.00,1034.0,WeatherDisplay:10.37,2013-08-28 16:15:00,
2013-08-28 12:20:00,89.5,74.3,30.00,NNE,22,5.0,7.0,61,0.00,OVC,,0.00,1027.0,WeatherDisplay:10.37,2013-08-28 16:20:00,
2013-08-28 12:25:00,88.6,72.4,30.00,NNE,22,2.0,8.0,59,0.00,OVC,,0.00,199.0,WeatherDisplay:10.37,2013-08-28 16:25:00,
2013-08-28 12:30:00,87.1,71.5,29.99,NNE,22,0.0,5.0,60,0.00,OVC,,0.00,185.0,WeatherDisplay:10.37,2013-08-28 16:30:00,
2013-08-28 12:35:00,86.2,71.6,29.99,NNE,22,0.0,3.0,62,0.00,OVC,,0.00,232.0,WeatherDisplay:10.37,2013-08-28 16:35:00,
2013-08-28 12:40:00,86.1,72.5,29.99,NNE,22,5.0,7.0,64,0.00,OVC,,0.00,285.0,WeatherDisplay:10.37,2013-08-28 16:40:00,
2013-08-28 12:45:00,86.1,72.0,29.99,NNE,22,0.0,4.0,63,0.00,OVC,,0.00,248.0,WeatherDisplay:10.37,2013-08-28 16:45:00,
2013-08-28 12:50:00,86.0,73.3,29.99,NNE,22,2.0,7.0,66,0.00,OVC,,0.00,246.0,WeatherDisplay:10.37,2013-08-28 16:50:00,
2013-08-28 12:55:00,87.8,74.1,29.99,NNE,22,0.0,5.0,64,0.00,OVC,,0.00,1127.0,WeatherDisplay:10.37,2013-08-28 16:55:00,
2013-08-28 13:00:00,89.3,74.1,29.99,NNE,22,2.0,7.0,61,0.00,OVC,,0.00,1165.0,WeatherDisplay:10.37,2013-08-28 17:00:00,
2013-08-28 13:05:00,89.7,73.5,29.99,NNE,26,1.0,7.0,59,0.00,OVC,,0.00,278.0,WeatherDisplay:10.37,2013-08-28 17:05:00,
2013-08-28 13:10:00,88.6,72.4,29.99,NE,36,2.0,11.0,59,0.00,OVC,,0.00,207.0,WeatherDisplay:10.37,2013-08-28 17:10:00,
2013-08-28 13:15:00,87.5,72.9,29.98,NE,34,0.0,5.0,62,0.00,OVC,,0.00,213.0,WeatherDisplay:10.37,2013-08-28 17:15:00,
2013-08-28 13:20:00,87.2,73.1,29.98,NNE,29,1.0,4.0,63,0.00,OVC,,0.00,220.0,WeatherDisplay:10.37,2013-08-28 17:20:00,
2013-08-28 13:25:00,87.9,73.7,29.98,NE,39,1.0,5.0,63,0.00,OVC,,0.00,1086.0,WeatherDisplay:10.37,2013-08-28 17:25:00,
2013-08-28 13:30:00,88.5,72.3,29.98,NNE,31,1.0,5.0,59,0.00,OVC,,0.00,195.0,WeatherDisplay:10.37,2013-08-28 17:30:00,
2013-08-28 13:35:00,89.1,74.4,29.98,NNE,22,0.0,10.0,62,0.00,OVC,,0.00,1048.0,WeatherDisplay:10.37,2013-08-28 17:35:00,
2013-08-28 13:40:00,89.7,72.4,29.98,NNE,22,2.0,3.0,57,0.00,OVC,,0.00,1046.0,WeatherDisplay:10.37,2013-08-28 17:40:00,
2013-08-28 13:45:00,90.1,74.3,29.98,NNE,22,0.0,8.0,60,0.00,OVC,,0.00,1028.0,WeatherDisplay:10.37,2013-08-28 17:45:00,
2013-08-28 13:50:00,91.0,74.2,29.98,NNE,22,6.0,10.0,58,0.00,OVC,,0.00,1065.0,WeatherDisplay:10.37,2013-08-28 17:50:00,
2013-08-28 13:55:00,90.1,71.2,29.98,NNE,22,1.0,4.0,54,0.00,OVC,,0.00,216.0,WeatherDisplay:10.37,2013-08-28 17:55:00,
2013-08-28 14:00:00,88.8,71.6,29.98,NNE,22,1.0,3.0,57,0.00,OVC,,0.00,204.0,WeatherDisplay:10.37,2013-08-28 18:00:00,
2013-08-28 14:05:00,88.8,72.6,29.98,NNE,22,0.0,4.0,59,0.00,OVC,,0.00,163.0,WeatherDisplay:10.37,2013-08-28 18:05:00,
2013-08-28 14:10:00,88.2,73.0,29.98,NNE,22,0.0,1.0,61,0.00,OVC,,0.00,199.0,WeatherDisplay:10.37,2013-08-28 18:10:00,
2013-08-28 14:15:00,88.0,71.4,29.97,NNE,22,0.0,1.0,58,0.00,OVC,,0.00,220.0,WeatherDisplay:10.37,2013-08-28 18:15:00,
2013-08-28 14:20:00,87.6,71.0,29.97,NNE,22,1.0,3.0,58,0.00,OVC,,0.00,160.0,WeatherDisplay:10.37,2013-08-28 18:20:00,
2013-08-28 14:25:00,89.5,72.8,29.97,NNE,22,5.0,7.0,58,0.00,OVC,,0.00,997.0,WeatherDisplay:10.37,2013-08-28 18:25:00,
2013-08-28 14:30:00,90.9,72.5,29.96,NNE,22,1.0,7.0,55,0.00,OVC,,0.00,986.0,WeatherDisplay:10.37,2013-08-28 18:30:00,
2013-08-28 14:35:00,91.5,72.5,29.96,NNE,22,1.0,5.0,54,0.00,OVC,,0.00,983.0,WeatherDisplay:10.37,2013-08-28 18:35:00,
2013-08-28 14:40:00,91.2,72.2,29.96,NNE,22,1.0,4.0,54,0.00,OVC,,0.00,158.0,WeatherDisplay:10.37,2013-08-28 18:40:00,
2013-08-28 14:45:00,91.7,70.4,29.95,NNE,22,2.0,4.0,50,0.00,OVC,,0.00,970.0,WeatherDisplay:10.37,2013-08-28 18:45:00,
2013-08-28 14:50:00,93.1,72.3,29.95,NNE,22,0.0,4.0,51,0.00,OVC,,0.00,990.0,WeatherDisplay:10.37,2013-08-28 18:50:00,
2013-08-28 14:55:00,94.0,70.7,29.95,NNE,22,0.0,5.0,47,0.00,OVC,,0.00,988.0,WeatherDisplay:10.37,2013-08-28 18:55:00,
2013-08-28 15:00:00,93.4,71.4,29.95,NNE,22,1.0,3.0,49,0.00,OVC,,0.00,951.0,WeatherDisplay:10.37,2013-08-28 19:00:00,
2013-08-28 15:05:00,94.6,71.2,29.95,NNE,22,0.0,4.0,47,0.00,OVC,,0.00,976.0,WeatherDisplay:10.37,2013-08-28 19:05:00,
2013-08-28 15:10:00,94.5,71.2,29.95,NNE,22,0.0,7.0,47,0.00,OVC,,0.00,984.0,WeatherDisplay:10.37,2013-08-28 19:10:00,
2013-08-28 15:15:00,95.0,72.2,29.94,NNE,22,1.0,4.0,48,0.00,OVC,,0.00,972.0,WeatherDisplay:10.37,2013-08-28 19:15:00,
2013-08-28 15:20:00,95.0,73.4,29.94,NNE,22,2.0,3.0,50,0.00,OVC,,0.00,935.0,WeatherDisplay:10.37,2013-08-28 19:20:00,
2013-08-28 15:25:00,94.4,74.1,29.94,NNE,29,6.0,8.0,52,0.00,OVC,,0.00,856.0,WeatherDisplay:10.37,2013-08-28 19:25:00,
2013-08-28 15:30:00,93.4,74.3,29.93,NNE,26,5.0,10.0,54,0.00,OVC,,0.00,891.0,WeatherDisplay:10.37,2013-08-28 19:30:00,
2013-08-28 15:35:00,92.6,73.5,29.93,NNE,22,2.0,5.0,54,0.00,OVC,,0.00,872.0,WeatherDisplay:10.37,2013-08-28 19:35:00,
2013-08-28 15:40:00,93.1,74.0,29.93,NNE,22,1.0,4.0,54,0.00,OVC,,0.00,874.0,WeatherDisplay:10.37,2013-08-28 19:40:00,
2013-08-28 15:45:00,93.8,74.6,29.92,NNE,22,5.0,7.0,54,0.00,OVC,,0.00,780.0,WeatherDisplay:10.37,2013-08-28 19:45:00,
2013-08-28 15:50:00,93.1,74.0,29.92,NNE,22,7.0,11.0,54,0.00,OVC,,0.00,840.0,WeatherDisplay:10.37,2013-08-28 19:50:00,
2013-08-28 15:55:00,91.6,72.6,29.92,NNE,22,5.0,12.0,54,0.00,OVC,,0.00,840.0,WeatherDisplay:10.37,2013-08-28 19:55:00,
2013-08-28 16:00:00,90.1,72.8,29.92,NNE,22,5.0,10.0,57,0.00,OVC,,0.00,740.0,WeatherDisplay:10.37,2013-08-28 20:00:00,
2013-08-28 16:05:00,90.6,72.8,29.92,NNE,22,7.0,10.0,56,0.00,OVC,,0.00,809.0,WeatherDisplay:10.37,2013-08-28 20:05:00,
2013-08-28 16:10:00,90.3,73.0,29.92,NNE,22,7.0,14.0,57,0.00,OVC,,0.00,248.0,WeatherDisplay:10.37,2013-08-28 20:10:00,
2013-08-28 16:15:00,90.4,72.6,29.92,NNE,22,7.0,14.0,56,0.00,OVC,,0.00,817.0,WeatherDisplay:10.37,2013-08-28 20:15:00,
2013-08-28 16:20:00,91.2,73.3,29.92,NNE,22,6.0,11.0,56,0.00,OVC,,0.00,779.0,WeatherDisplay:10.37,2013-08-28 20:20:00,
2013-08-28 16:25:00,92.3,73.2,29.92,NNE,22,5.0,12.0,54,0.00,OVC,,0.00,728.0,WeatherDisplay:10.37,2013-08-28 20:25:00,
2013-08-28 16:30:00,91.4,73.0,29.92,NNE,22,6.0,11.0,55,0.00,OVC,,0.00,686.0,WeatherDisplay:10.37,2013-08-28 20:30:00,
2013-08-28 16:35:00,91.5,73.6,29.92,NNE,22,2.0,14.0,56,0.00,OVC,,0.00,661.0,WeatherDisplay:10.37,2013-08-28 20:35:00,
2013-08-28 16:40:00,91.3,73.9,29.92,NNE,22,7.0,11.0,57,0.00,OVC,,0.00,657.0,WeatherDisplay:10.37,2013-08-28 20:40:00,
2013-08-28 16:45:00,90.7,72.8,29.92,NNE,22,7.0,15.0,56,0.00,OVC,,0.00,657.0,WeatherDisplay:10.37,2013-08-28 20:45:00,
2013-08-28 16:50:00,90.4,72.6,29.92,NNE,22,7.0,15.0,56,0.00,OVC,,0.00,631.0,WeatherDisplay:10.37,2013-08-28 20:50:00,
2013-08-28 16:55:00,89.5,72.3,29.92,NNE,22,5.0,11.0,57,0.00,OVC,,0.00,141.0,WeatherDisplay:10.37,2013-08-28 20:55:00,
2013-08-28 17:00:00,88.8,72.1,29.92,NNE,22,2.0,8.0,58,0.00,OVC,,0.00,148.0,WeatherDisplay:10.37,2013-08-28 21:00:00,
2013-08-28 17:05:00,88.1,72.0,29.92,NNE,22,6.0,14.0,59,0.00,OVC,,0.00,134.0,WeatherDisplay:10.37,2013-08-28 21:05:00,
2013-08-28 17:10:00,87.9,71.8,29.92,NNE,22,5.0,11.0,59,0.00,OVC,,0.00,169.0,WeatherDisplay:10.37,2013-08-28 21:10:00,
2013-08-28 17:15:00,88.0,72.4,29.91,NNE,22,2.0,14.0,60,0.00,OVC,,0.00,225.0,WeatherDisplay:10.37,2013-08-28 21:15:00,
2013-08-28 17:20:00,88.1,73.0,29.91,NNE,22,2.0,5.0,61,0.00,OVC,,0.00,111.0,WeatherDisplay:10.37,2013-08-28 21:20:00,
2013-08-28 17:25:00,88.0,72.4,29.91,NNE,22,5.0,8.0,60,0.00,OVC,,0.00,111.0,WeatherDisplay:10.37,2013-08-28 21:25:00,
2013-08-28 17:30:00,87.6,72.5,29.92,NNE,22,5.0,8.0,61,0.00,OVC,,0.00,121.0,WeatherDisplay:10.37,2013-08-28 21:30:00,
2013-08-28 17:35:00,87.2,71.6,29.92,NNE,22,5.0,14.0,60,0.00,OVC,,0.00,151.0,WeatherDisplay:10.37,2013-08-28 21:35:00,
2013-08-28 17:40:00,87.0,71.9,29.92,NNE,22,5.0,11.0,61,0.00,OVC,,0.00,455.0,WeatherDisplay:10.37,2013-08-28 21:40:00,
2013-08-28 17:45:00,87.3,72.2,29.92,NNE,23,2.0,10.0,61,0.00,OVC,,0.00,121.0,WeatherDisplay:10.37,2013-08-28 21:45:00,
2013-08-28 17:50:00,87.2,71.6,29.92,NNE,24,7.0,11.0,60,0.00,OVC,,0.00,102.0,WeatherDisplay:10.37,2013-08-28 21:50:00,
2013-08-28 17:55:00,87.1,72.0,29.92,NNE,22,5.0,10.0,61,0.00,OVC,,0.00,116.0,WeatherDisplay:10.37,2013-08-28 21:55:00,
2013-08-28 18:00:00,86.5,71.5,29.92,NNE,25,6.0,12.0,61,0.00,CLR,,0.00,114.0,WeatherDisplay:10.37,2013-08-28 22:00:00,
2013-08-28 18:05:00,86.3,71.7,29.92,NNE,24,7.0,12.0,62,0.00,CLR,,0.00,53.0,WeatherDisplay:10.37,2013-08-28 22:05:00,
2013-08-28 18:10:00,86.0,71.5,29.92,NNE,22,8.0,16.0,62,0.00,CLR,,0.00,47.0,WeatherDisplay:10.37,2013-08-28 22:10:00,
2013-08-28 18:15:00,85.4,71.4,29.92,NNE,22,7.0,16.0,63,0.00,CLR,,0.00,44.0,WeatherDisplay:10.37,2013-08-28 22:15:00,
2013-08-28 18:20:00,85.0,71.5,29.92,NNE,22,6.0,12.0,64,0.00,CLR,,0.00,49.0,WeatherDisplay:10.37,2013-08-28 22:20:00,
2013-08-28 18:25:00,84.7,71.2,29.92,NNE,22,7.0,11.0,64,0.00,CLR,,0.00,47.0,WeatherDisplay:10.37,2013-08-28 22:25:00,
2013-08-28 18:30:00,84.7,71.2,29.92,NNE,22,7.0,11.0,64,0.00,CLR,,0.00,44.0,WeatherDisplay:10.37,2013-08-28 22:30:00,
2013-08-28 18:35:00,84.3,71.2,29.92,NNE,22,6.0,11.0,65,0.00,CLR,,0.00,40.0,WeatherDisplay:10.37,2013-08-28 22:35:00,
2013-08-28 18:40:00,84.1,71.1,29.92,NNE,22,6.0,10.0,65,0.00,CLR,,0.00,39.0,WeatherDisplay:10.37,2013-08-28 22:40:00,
2013-08-28 18:45:00,83.9,70.9,29.92,NNE,22,0.0,12.0,65,0.00,CLR,,0.00,37.0,WeatherDisplay:10.37,2013-08-28 22:45:00,
2013-08-28 18:50:00,83.5,70.5,29.92,NNE,22,6.0,18.0,65,0.00,CLR,,0.00,35.0,WeatherDisplay:10.37,2013-08-28 22:50:00,
2013-08-28 19:00:00,83.0,70.5,29.92,NNE,22,13.8,13.8,66,0.00,SCT,,0.00,32.0,WeatherDisplay:10.37,2013-08-28 23:00:00,
2013-08-28 19:05:00,82.8,70.7,29.92,NNE,23,8.1,8.1,67,0.00,SCT,,0.00,30.0,WeatherDisplay:10.37,2013-08-28 23:05:00,
2013-08-28 19:10:00,82.7,70.6,29.92,NNE,21,9.2,9.2,67,0.00,SCT,,0.00,26.0,WeatherDisplay:10.37,2013-08-28 23:10:00,
2013-08-28 19:15:00,82.5,70.9,29.92,NNE,22,8.1,8.1,68,0.00,SCT,,0.00,25.0,WeatherDisplay:10.37,2013-08-28 23:15:00,
2013-08-28 19:20:00,82.3,70.7,29.92,NNE,22,5.8,5.8,68,0.00,SCT,,0.00,21.0,WeatherDisplay:10.37,2013-08-28 23:20:00,
2013-08-28 19:25:00,82.1,70.5,29.92,NNE,22,8.1,8.1,68,0.00,SCT,,0.00,19.0,WeatherDisplay:10.37,2013-08-28 23:25:00,
2013-08-28 19:30:00,81.9,70.3,29.92,NNE,22,0.0,0.2,68,0.00,SCT,,0.00,16.0,WeatherDisplay:10.37,2013-08-28 23:30:00,
2013-08-28 19:35:00,81.8,70.2,29.92,NNE,24,9.2,9.2,68,0.00,SCT,,0.00,14.0,WeatherDisplay:10.37,2013-08-28 23:35:00,
2013-08-28 19:40:00,81.5,69.9,29.92,NNE,26,8.1,8.1,68,0.00,SCT,,0.00,11.0,WeatherDisplay:10.37,2013-08-28 23:40:00,
2013-08-28 19:45:00,81.3,70.2,29.92,NNE,25,9.2,9.2,69,0.00,SCT,,0.00,7.0,WeatherDisplay:10.37,2013-08-28 23:45:00,
2013-08-28 19:50:00,81.1,70.0,29.92,NNE,32,5.5,5.5,69,0.00,SCT,,0.00,5.0,WeatherDisplay:10.37,2013-08-28 23:50:00,
2013-08-28 19:55:00,80.9,70.2,29.92,NNE,24,2.3,2.3,70,0.00,SCT,,0.00,0.0,WeatherDisplay:10.37,2013-08-28 23:55:00,
2013-08-28 20:00:00,80.6,69.9,29.92,NNE,28,9.2,9.2,70,0.00,SCT,,0.00,0.0,WeatherDisplay:10.37,2013-08-29 00:00:00,
2013-08-28 20:06:00,80.5,69.8,29.92,NNE,27,4.6,4.6,70,0.00,SCT,,0.00,0.0,WeatherDisplay:10.37,2013-08-29 00:06:00,
2013-08-28 20:11:00,80.3,70.0,29.92,NNE,27,2.3,0.0,71,0.00,SCT,,0.00,0.0,WeatherDisplay:10.37,2013-08-29 00:11:00,
2013-08-28 20:16:00,80.2,69.9,29.92,NNE,27,2.3,0.0,71,0.00,SCT,,0.00,0.0,WeatherDisplay:10.37,2013-08-29 00:16:00,
2013-08-28 20:21:00,79.9,70.1,29.92,NNE,28,2.3,2.8,72,0.00,SCT,,0.00,0.0,WeatherDisplay:10.37,2013-08-29 00:21:00,
2013-08-28 20:26:00,79.7,69.9,29.92,NNE,28,4.6,4.6,72,0.00,SCT,,0.00,0.0,WeatherDisplay:10.37,2013-08-29 00:26:00,
2013-08-28 20:31:00,79.6,69.8,29.93,NNE,30,6.9,6.9,72,0.00,SCT,,0.00,0.0,WeatherDisplay:10.37,2013-08-29 00:31:00,
2013-08-28 20:36:00,79.5,70.1,29.93,NNE,30,4.6,4.6,73,0.00,SCT,,0.00,0.0,WeatherDisplay:10.37,2013-08-29 00:36:00,
2013-08-28 20:41:00,79.3,69.9,29.93,NNE,30,4.6,4.6,73,0.00,SCT,,0.00,0.0,WeatherDisplay:10.37,2013-08-29 00:41:00,
2013-08-28 20:46:00,79.2,69.8,29.93,NNE,30,4.6,4.6,73,0.00,SCT,,0.00,0.0,WeatherDisplay:10.37,2013-08-29 00:46:00,
2013-08-28 20:51:00,79.0,69.6,29.93,NNE,30,0.0,0.0,73,0.00,SCT,,0.00,0.0,WeatherDisplay:10.37,2013-08-29 00:51:00,
2013-08-28 20:56:00,78.8,69.8,29.93,NNE,30,1.2,1.2,74,0.00,SCT,,0.00,0.0,WeatherDisplay:10.37,2013-08-29 00:56:00,
2013-08-28 21:01:00,78.6,69.6,29.93,NNE,30,0.0,0.0,74,0.00,SCT,,0.00,0.0,WeatherDisplay:10.37,2013-08-29 01:01:00,
2013-08-28 21:06:00,78.5,69.9,29.93,NNE,30,1.2,1.2,75,0.00,SCT,,0.00,0.0,WeatherDisplay:10.37,2013-08-29 01:06:00,
2013-08-28 21:11:00,78.3,69.7,29.93,NNE,30,0.0,0.0,75,0.00,SCT,,0.00,0.0,WeatherDisplay:10.37,2013-08-29 01:11:00,
2013-08-28 21:16:00,78.2,69.6,29.94,NNE,30,4.1,4.1,75,0.00,SCT,,0.00,0.0,WeatherDisplay:10.37,2013-08-29 01:16:00,
2013-08-28 21:21:00,78.1,69.5,29.94,NNE,30,0.0,0.0,75,0.00,SCT,,0.00,0.0,WeatherDisplay:10.37,2013-08-29 01:21:00,
2013-08-28 21:26:00,78.0,69.8,29.94,NNE,30,4.6,4.6,76,0.00,SCT,,0.00,0.0,WeatherDisplay:10.37,2013-08-29 01:26:00,
2013-08-28 21:31:00,77.9,69.7,29.94,NNE,30,1.2,1.2,76,0.00,SCT,,0.00,0.0,WeatherDisplay:10.37,2013-08-29 01:31:00,
2013-08-28 21:36:00,77.8,69.6,29.94,NNE,30,0.0,0.0,76,0.00,SCT,,0.00,0.0,WeatherDisplay:10.37,2013-08-29 01:36:00,
2013-08-28 21:41:00,77.7,69.9,29.94,NNE,30,1.4,1.4,77,0.00,SCT,,0.00,0.0,WeatherDisplay:10.37,2013-08-29 01:41:00,
2013-08-28 21:46:00,77.6,69.8,29.95,NNE,30,2.3,2.3,77,0.00,SCT,,0.00,0.0,WeatherDisplay:10.37,2013-08-29 01:46:00,
2013-08-28 21:51:00,77.6,70.2,29.95,NNE,30,0.0,0.0,78,0.00,SCT,,0.00,0.0,WeatherDisplay:10.37,2013-08-29 01:51:00,
2013-08-28 21:56:00,77.6,70.2,29.95,NNE,30,2.3,2.3,78,0.00,SCT,,0.00,0.0,WeatherDisplay:10.37,2013-08-29 01:56:00,
2013-08-28 22:01:00,77.8,70.4,29.95,NNE,30,0.0,0.0,78,0.00,SCT,,0.00,0.0,WeatherDisplay:10.37,2013-08-29 02:01:00,
2013-08-28 22:06:00,77.6,70.2,29.95,NNE,30,1.4,0.0,78,0.00,SCT,,0.00,0.0,WeatherDisplay:10.37,2013-08-29 02:06:00,
2013-08-28 22:11:00,77.6,70.2,29.95,NNE,30,1.4,0.0,78,0.00,SCT,,0.00,0.0,WeatherDisplay:10.37,2013-08-29 02:11:00,
2013-08-28 22:16:00,77.6,70.2,29.96,NNE,28,2.3,2.3,78,0.00,SCT,,0.00,0.0,WeatherDisplay:10.37,2013-08-29 02:16:00,
2013-08-28 22:21:00,77.6,70.2,29.96,NNE,28,1.4,1.4,78,0.00,SCT,,0.00,0.0,WeatherDisplay:10.37,2013-08-29 02:21:00,
2013-08-28 22:26:00,77.8,70.4,29.96,NNE,28,4.6,4.6,78,0.00,SCT,,0.00,0.0,WeatherDisplay:10.37,2013-08-29 02:26:00,
2013-08-28 22:31:00,77.8,70.4,29.96,NNE,28,2.3,2.3,78,0.00,SCT,,0.00,0.0,WeatherDisplay:10.37,2013-08-29 02:31:00,
2013-08-28 22:36:00,77.6,70.2,29.96,NNE,30,0.0,0.0,78,0.00,SCT,,0.00,0.0,WeatherDisplay:10.37,2013-08-29 02:36:00,
2013-08-28 22:41:00,77.5,70.5,29.96,NNE,30,0.0,0.0,79,0.00,SCT,,0.00,0.0,WeatherDisplay:10.37,2013-08-29 02:41:00,
2013-08-28 22:46:00,77.3,70.3,29.96,NNE,30,4.1,4.1,79,0.00,SCT,,0.00,0.0,WeatherDisplay:10.37,2013-08-29 02:46:00,
2013-08-28 22:51:00,77.2,70.2,29.96,NNE,30,4.6,4.6,79,0.00,SCT,,0.00,0.0,WeatherDisplay:10.37,2013-08-29 02:51:00,
2013-08-28 22:56:00,77.2,70.2,29.96,NNE,30,0.0,0.0,79,0.00,SCT,,0.00,0.0,WeatherDisplay:10.37,2013-08-29 02:56:00,
2013-08-28 23:01:00,76.9,70.3,29.96,NNE,30,0.0,0.0,80,0.00,BKN,,0.00,0.0,WeatherDisplay:10.37,2013-08-29 03:01:00,
2013-08-28 23:06:00,76.7,70.1,29.96,NNE,30,0.0,0.0,80,0.00,BKN,,0.00,0.0,WeatherDisplay:10.37,2013-08-29 03:06:00,
2013-08-28 23:11:00,76.6,70.3,29.96,NNE,30,0.0,0.0,81,0.00,BKN,,0.00,0.0,WeatherDisplay:10.37,2013-08-29 03:11:00,
2013-08-28 23:16:00,76.4,70.1,29.96,NNE,30,1.4,1.4,81,0.00,BKN,,0.00,0.0,WeatherDisplay:10.37,2013-08-29 03:16:00,
2013-08-28 23:21:00,76.4,70.5,29.96,NNE,30,1.2,1.2,82,0.00,BKN,,0.00,0.0,WeatherDisplay:10.37,2013-08-29 03:21:00,
2013-08-28 23:26:00,76.4,70.1,29.96,NNE,30,2.3,2.3,81,0.00,BKN,,0.00,0.0,WeatherDisplay:10.37,2013-08-29 03:26:00,
2013-08-28 23:31:00,76.4,70.1,29.96,NNE,30,0.0,0.0,81,0.00,BKN,,0.00,0.0,WeatherDisplay:10.37,2013-08-29 03:31:00,
2013-08-28 23:36:00,76.1,70.2,29.96,NNE,30,1.2,1.2,82,0.00,BKN,,0.00,0.0,WeatherDisplay:10.37,2013-08-29 03:36:00,
2013-08-28 23:41:00,75.9,70.0,29.96,NNE,30,4.6,4.6,82,0.00,BKN,,0.00,0.0,WeatherDisplay:10.37,2013-08-29 03:41:00,
2013-08-28 23:46:00,76.0,70.1,29.96,NNE,30,1.2,1.2,82,0.00,BKN,,0.00,0.0,WeatherDisplay:10.37,2013-08-29 03:46:00,
2013-08-28 23:51:00,76.0,70.1,29.96,NNE,30,0.0,0.1,82,0.00,BKN,,0.00,0.0,WeatherDisplay:10.37,2013-08-29 03:51:00,
2013-08-28 23:56:00,75.9,70.0,29.96,NNE,30,1.2,0.0,82,0.00,BKN,,0.00,0.0,WeatherDisplay:10.37,2013-08-29 03:56:00,